Air Resources Laboratory banner image
Air Resources Laboratory web site National Oceanic and Atmospheric Administration (NOAA)

ut roundup


Office: SLC

ASUS45 KSLC 181310
RWRUT

UTAH REGIONAL WEATHER ROUNDUP
NATIONAL WEATHER SERVICE SALT LAKE CITY UT
700 AM MDT THU OCT 18 2018

UTZ001>011-023>025-181400-

NORTHERN UTAH

CITY           SKY/WX    TMP DP  RH WIND       PRES   REMARKS
BRIGHAM CITY   CLOUDY    46  36  69 CALM      30.27R
DUGWAY         MOCLDY    39  33  81 SE1       30.27
HILL AFB       PTCLDY    45  34  67 E7        30.26R
LOGAN          CLOUDY    35  31  85 CALM      30.27R
OGDEN          MOCLDY    46  35  65 S9        30.25R
SALT LAKE CITY PTCLDY    46  35  65 SE6       30.26R
TOOELE VALLEY  CLOUDY    46  34  61 S13       30.26R
WENDOVER       PTCLDY    41  30  65 W3        30.25R
HEBER CITY       N/A     32  30  93 CALM      30.29R
WEST JORDAN    PTCLDY    43  36  74 S5        30.27S

$$

UTZ011>015-024>027-181400-

CENTRAL/NORTHEAST UTAH

CITY           SKY/WX    TMP DP  RH WIND       PRES   REMARKS
PROVO AIRPORT  PTCLDY    41  34  76 S6        30.29R
MOAB/CANYONLAN LGT RAIN  44  44 100 W3        30.27S
DELTA          PTCLDY    36  32  87 NE3       30.27S
PRICE          CLOUDY    38  38 100 CALM      30.30S
RICHFIELD      CLEAR     28  28 100 CALM      30.30R
ROOSEVELT      MOCLDY    41  39  93 S3        30.35R
VERNAL         CLOUDY    43  41  93 SW3       30.33R

$$

UTZ013>016-019>022-027-181400-

SOUTHERN UTAH

CITY           SKY/WX    TMP DP  RH WIND       PRES   REMARKS
BRYCE CANYON   CLEAR     25  23  92 W9        30.31R WCI  15
CEDAR CITY     CLEAR     32  30  92 CALM      30.26S
MILFORD        CLEAR     32  30  92 SW8       30.27R WCI  25
ST GEORGE      SUNNY     46  36  68 S5        30.25R
HANKSVILLE     CLOUDY    43  43 100 CALM      30.32S
KANAB          CLEAR     37  32  81 N13       30.29S WCI  29
BLANDING         N/A     43  38  82 CALM      30.37S

$$

REGIONAL REPORTS     COLORADO/ARIZONA

CITY           SKY/WX    TMP DP  RH WIND       PRES   REMARKS
CRAIG, CO      CLOUDY    36  31  82 E3        30.34F
GRAND JUNCTION CLOUDY    43  42  97 CALM      30.30R
RIFLE, CO      CLOUDY    40  36  86 E5        30.32S
MONTROSE, CO   CLOUDY    39  32  76 S5        30.34S
CORTEZ, CO     CLOUDY    47  36  65 SE17G24   30.31S
COLORADO CITY    N/A     36  34  93 CALM      30.29R
PAGE, AZ       CLOUDY    47  44  90 CALM      30.26R
GRAND CANYON   MOCLDY    28  26  92 CALM      30.28R
KINGMAN, AZ    CLEAR     45  37  73 E3        30.19R
FLAGSTAFF, AZ  CLEAR     25  24  96 CALM      30.26S

$$

REGIONAL REPORTS    NEVADA/IDAHO/WYOMING

CITY           SKY/WX    TMP DP  RH WIND       PRES   REMARKS
LAS VEGAS, NV  CLEAR     57  34  41 SW3       30.18R
ELY, NY        CLEAR     24  20  84 S12       30.29R WCI  13
ELKO, NV       CLEAR     30  22  72 NE6       30.26R WCI  24
POCATELLO, ID  CLEAR     32  27  81 E3        30.26R
BURLEY, ID     CLEAR     35  26  69 CALM      30.23S
EVANSTON, WY   PTCLDY    35  32  88 S3        30.31R
ROCK SPRINGS,  CLOUDY    36  28  73 N6        30.28F WCI  31
KEMMERER, WY   CLEAR     30  23  74 NW7       30.31R WCI  23

$$




Office: LKN ASUS65 KLKN 181231 RTPLKN Regional Temperature And Precipitation Table...Early Morning National Weather Service Elko NV 531 AM PDT Thu Oct 18 2018 ***Automated Airport Stations*** Values represent lows over the last 12 hours... Highs over the last 24 hours and precipitation over the last 24 hours...ending at 4 AM PST/5 AM PDT today. .BR LKN 1018 P DH04/TAIRZX/DH04/TAIRZP/PPDRZZ/SFDRZZ/SDIRZZ : :ID Station Elev / Max / Min / Pcpn / :.................................................................... : EKO : Elko ASOS 5074 : 67 / 27 / 0.00 / ELY : Ely ASOS 6262 : 60 / 25 / 0.00 / P68 : Eureka ASOS 5936 : 62 / 28 / 0.00 / TPH : Tonopah ASOS 5395 : 64 / 36 / 0.00 / ENV : Wendover AWOS 4236 : 62 / 38 / 0.00 / WMC : Winnemucca ASOS 4314 : 70 / 25 / 0.00 / .END ***Manual synoptic reporting stations in north and central Nevada*** Values reflect the previous 24 hours ending at 4 AM PST/5 AM PDT *Snow stations may only report during periods of snowfall* .BR LKN 1018 P DH04/TAIRZX/TAIRZN/PPDRZZ/SFDRZZ/SDIRZZ : Snow Snow :ID Station Elev Max / Min / Pcpn / Fall / Dpth :.................................................................... : TLKN2 : Elko NWS Office 5235 : 66 / 27 / 0.00 / 0.0 / 0 TELN2 : Ely Snow 6487 : M / M / 0.00 / 0.0 / 0 TWIN2 : Winnemucca Snow 4355 : M / M / 0.00 / 0.0 / 0 .END ***Cooperative stations in north and central Nevada*** Values reflect the previous 24 hours Report time as indicated .BR LKN 1018 P DH04/TAIRZX/TAIRZN/PPDRZZ/SFDRZZ/SDIRZZ : Snow Snow :ID Station Elev Time / Max / Min / Pcpn / Fall / Dpth :.................................................................... : MOMN2 : Moorman Ranch 6539 5 AM: 59 / 23 / 0.00 / 0.0 / 0 .END M = Missing data T = Trace amounts ASOS = Automated Surface Observing System AWOS = Automated Weather Observation System NWS = National Weather Service DCP = Data Collection Platform These data are preliminary and have not undergone final quality control (QC) by NCEI. Therefore, these data are subject to revision. Final and certified data can be accessed at the National Centers For Environmental Information (NCEI) - www.ncei.noaa.gov $$ BA